Regional Weather Roundup
Issued by NWS Jackson, KY

Home | Current Version | Previous Version | Graphics & Text | Print | Product List | Glossary On
Versions: 1 2 3 4 5 6 7 8 9 10 11 12 13 14 15 16 17 18 19 20 21 22 23 24 25 26 27
000
ASUS43 KJKL 171310
RWRJKL

EAST KENTUCKY HOURLY WEATHER ROUNDUP
NATIONAL WEATHER SERVICE JACKSON KY
900 AM EDT TUE OCT 17 2017

NOTE: "FAIR" INDICATES FEW OR NO CLOUDS BELOW 12,000 FEET WITH
NO SIGNIFICANT WEATHER AND/OR OBSTRUCTIONS TO VISIBILITY.

* THESE REPORTS ARE NOT UNDER NWS QUALITY CONTROL AND MAY NOT
  REPORT WEATHER SUCH AS PRECIPITATION AND FOG.

KYZ079-080-083-085-087-088-110-112-115-119-120-171400
...EASTERN KENTUCKY...

CITY           SKY/WX    TMP DP  RH WIND       PRES   REMARKS
JACKSON        SUNNY     43  40  89 CALM      30.39R
LONDON         SUNNY     41  39  93 CALM      30.39R
SOMERSET*      FOG       37  37 100 CALM      30.41R VSB<1/4
MONTICELLO*    PTSUNNY   40  40 100 NE8       30.41R FOG     WCI  34
WILLIAMSBURG*  CLOUDY    39  39 100 CALM      30.39R VSB<1/4
MIDDLESBORO*   FOG       40  40 100 CALM      30.41R VSB 1/2
HARLAN APT*    CLOUDY    39  37  93 CALM      30.40R VSB<1/4
PIKE CO APT*   FOG       39  39 100 CALM      30.39R VSB<1/4
BIG SANDY APT* SUNNY     41  41 100 CALM      30.39S
MOREHEAD APT*  SUNNY     43  41  93 CALM      30.40S
$$

KYZ035-036-041-042-044-050-067-078-099-171400
...CENTRAL KENTUCKY...

CITY           SKY/WX    TMP DP  RH WIND       PRES   REMARKS
MT STERLING*   SUNNY     41  39  93 CALM      30.40R
FLEMING/MASON* SUNNY     41  41 100 CALM      30.40S
DANVILLE*      SUNNY     37  37 100 CALM      30.40R
LEXINGTON      SUNNY     43  41  93 CALM      30.39R
FRANKFORT      SUNNY     42  38  85 CALM      30.38R
LOUISVILLE     MOSUNNY   45  41  86 CALM      30.39R
LEBANON*         N/A     43  41  93 CALM      30.39R
GLASGOW*       SUNNY    N/A N/A N/A CALM      30.38R
BOWLING GREEN  SUNNY     44  44 100 CALM      30.39R
$$

KYZ091>093-OHZ055-061-077-WVZ005-015-034-035-042-171400
...SOUTHERN OHIO/WEST VIRGINIA...

CITY           SKY/WX    TMP DP  RH WIND       PRES   REMARKS
COVINGTON      MOSUNNY   46  43  89 CALM      30.37R
COLUMBUS       MOSUNNY   44  41  89 S3        30.36R
DAYTON         MOSUNNY   46  41  82 SW8       30.37R
WILMINGTON     SUNNY     46  41  82 S3        30.37R
HUNTINGTON     SUNNY     40  39  97 CALM      30.39R
CHARLESTON     FOG       41  40  96 S3        30.40R VSB 1/4
PINEVILLE*     FOG       38  37  98 MISG      30.44R VSB<1/4
BECKLEY        SUNNY     40  37  89 CALM      30.38R
BLUEFIELD      SUNNY     41  35  79 CALM      30.37R
LOGAN CO APT*  FOG       39  39 100 CALM      30.38R VSB<1/4
$$

VAZ002-007-008-TNZ017-027-036-066-071-171400
...SOUTHWEST VIRGINIA/EAST TENNESSEE...

CITY           SKY/WX    TMP DP  RH WIND       PRES   REMARKS
WISE*          SUNNY     45  37  76 NE5       30.37S
JONESVILLE*      N/A     39  37  93 CALM      30.41R
ABINGDON*      SUNNY     43  40  89 E7        30.37R
BRISTOL        MOSUNNY   39  39 100 CALM      30.39R
MORRISTOWN*    SUNNY     46  41  81 E5        30.36R
SEVIERVILLE*   SUNNY     41  39  93 CALM      30.37R
KNOXVILLE      MOSUNNY   46  45  96 CALM      30.35R
LAFOLLETTE*    FOG       39  39 100 CALM      30.41R VSB 0
OAK RIDGE      SUNNY     46  45  96 CALM      30.38R
CROSSVILLE     SUNNY     43  39  86 E5        30.35R
NASHVILLE      SUNNY     44  42  93 CALM      30.37R
$$

...KEY TO REMARKS...
VSB - VISIBILITY IN MILES
WCI - WIND CHILL INDEX
HX  - HEAT INDEX

$$




USA.gov is the U.S. government's official web portal to all federal, state and local government web resources and services.